This demonstration page uses our WeatherBlox Daily Observations layout. Learn more.

40.92945, -100.16068

Hourly Observations for November 15, 2020

Temp ( °F °C ) Dew Point ( °F °C ) Humidity (%) Winds ( mph kmh ) Pressure ( in mb ) Visibility ( mi km ) Precip ( " mm )
12:15 am 00:15 Clear 35 1.7 24 -4.2 65 65 WNW 20 31 30 1016 10 16.0934 0 0
12:35 am 00:35 Clear 36 2 24 -4.4 63 63 WNW 20 31 30.01 1016 10 16.0934 0 0
12:55 am 00:55 Clear 35 1.9 24 -4.5 63 63 WNW 21 33 30.02 1017 10 16.0934 0 0
1:15 am 01:15 Clear 35 1.7 24 -4.5 64 64 WNW 20 31 30.03 1017 10 16.0934 0 0
1:35 am 01:35 Clear 35 1.5 24 -4.5 65 65 WNW 17 28 30.03 1017 10 16.0934 0 0
1:55 am 01:55 Clear 35 1.4 23 -4.8 64 64 WNW 14 22 30.03 1017 10 16.0934 0 0
2:15 am 02:15 Clear 35 1.5 23 -5 62 62 WNW 21 33 30.05 1018 10 16.0934 0 0
2:35 am 02:35 Clear 35 1.6 22 -5.3 61 61 WNW 21 33 30.05 1018 10 16.0934 0 0
2:55 am 02:55 Clear 35 1.6 22 -5.6 59 59 WNW 20 31 30.06 1018 10 16.0934 0 0
3:15 am 03:15 Clear 34 1.3 21 -6 59 59 WNW 18 30 30.07 1018 10 16.0934 0 0
3:35 am 03:35 Clear 35 1.5 21 -6.3 57 57 WNW 18 30 30.07 1018 10 16.0934 0 0
3:55 am 03:55 Clear 35 1.5 20 -6.8 54 54 WNW 20 31 30.07 1018 10 16.0934 0 0
4:15 am 04:15 Clear 35 1.6 19 -7.1 53 53 WNW 20 31 30.07 1018 10 16.0934 0 0
4:35 am 04:35 Clear 35 1.5 19 -7 54 54 WNW 18 30 30.07 1018 10 16.0934 0 0
4:55 am 04:55 Clear 35 1.6 20 -6.6 55 55 WNW 20 31 30.08 1019 10 16.0934 0 0
5:15 am 05:15 Clear 34 1.1 20 -6.7 56 56 WNW 16 26 30.09 1019 10 16.0934 0 0
5:35 am 05:35 Clear 34 0.9 19 -7.1 56 56 WNW 15 24 30.1 1019 10 16.0934 0 0
5:55 am 05:55 Clear 33 0.7 19 -7.5 55 55 WNW 15 24 30.11 1020 10 16.0934 0 0
6:15 am 06:15 Clear 33 0.5 18 -7.7 55 55 WNW 16 26 30.11 1020 10 16.0934 0 0
6:35 am 06:35 Clear 33 0.4 18 -8 54 54 WNW 16 26 30.11 1020 10 16.0934 0 0
6:55 am 06:55 Clear 33 0.6 17 -8.6 51 51 WNW 18 30 30.12 1020 10 16.0934 0 0
7:15 am 07:15 Clear 34 0.9 16 -9.1 48 48 WNW 18 30 30.13 1020 10 16.0934 0 0
7:35 am 07:35 Sunny 33 0.5 16 -9.1 49 49 WNW 17 28 30.13 1020 10 16.0934 0 0
7:55 am 07:55 Sunny 34 1.1 15 -9.2 47 47 WNW 17 28 30.15 1021 10 16.0934 0 0
8:15 am 08:15 Sunny 34 1.3 16 -9 47 47 WNW 14 22 30.15 1021 10 16.0934 0 0
8:35 am 08:35 Sunny 35 1.9 16 -8.9 45 45 WNW 13 20 30.15 1021 10 16.0934 0 0
8:55 am 08:55 Sunny 37 2.6 16 -9 42 42 WNW 16 26 30.15 1021 10 16.0934 0 0
9:15 am 09:15 Sunny 38 3.5 16 -9.1 40 40 WNW 20 31 30.15 1021 10 16.0934 0 0
9:35 am 09:35 Sunny 39 4 16 -9 39 39 WNW 21 33 30.16 1021 10 16.0934 0 0
9:55 am 09:55 Sunny 41 4.8 16 -8.9 37 37 WNW 21 33 30.16 1021 10 16.0934 0 0
10:15 am 10:15 Sunny 41 5.1 16 -8.7 37 37 NW 20 31 30.15 1021 10 16.0934 0 0
10:35 am 10:35 Sunny 42 5.5 16 -8.9 35 35 NW 17 28 30.14 1021 10 16.0934 0 0
10:55 am 10:55 Sunny 43 6.2 16 -8.9 33 33 WNW 17 28 30.15 1021 10 16.0934 0 0
11:15 am 11:15 Sunny 44 6.9 17 -8.6 32 32 WNW 18 30 30.15 1021 10 16.0934 0 0
11:35 am 11:35 Sunny 45 7.3 16 -8.9 31 31 NW 16 26 30.14 1021 10 16.0934 0 0
11:55 am 11:55 Sunny 46 7.7 17 -8.6 31 31 WNW 16 26 30.13 1020 10 16.0934 0 0
12:15 pm 12:15 Sunny 47 8.2 17 -8.1 31 31 WNW 17 28 30.13 1020 10 16.0934 0 0
12:35 pm 12:35 Sunny 47 8.6 16 -8.8 28 28 WNW 17 28 30.11 1020 10 16.0934 0 0
12:55 pm 12:55 Sunny 48 9.1 16 -9 27 27 W 16 26 30.11 1020 10 16.0934 0 0
1:15 pm 13:15 Sunny 49 9.3 16 -8.9 27 27 W 13 20 30.1 1019 10 16.0934 0 0
1:35 pm 13:35 Sunny 50 9.8 17 -8.4 27 27 WNW 17 28 30.09 1019 10 16.0934 0 0
1:55 pm 13:55 Sunny 50 10.2 17 -8.6 26 26 WNW 20 31 30.08 1019 10 16.0934 0 0
2:15 pm 14:15 Sunny 51 10.6 17 -8.3 26 26 W 17 28 30.08 1018 10 16.0934 0 0
2:35 pm 14:35 Sunny 51 10.5 17 -8.4 26 26 WNW 12 19 30.07 1018 10 16.0934 0 0
2:55 pm 14:55 Sunny 51 10.6 18 -7.6 27 27 W 9 15 30.07 1018 10 16.0934 0 0
3:15 pm 15:15 Sunny 52 11 19 -7.4 27 27 W 14 22 30.06 1018 10 16.0934 0 0
3:35 pm 15:35 Sunny 51 10.7 18 -7.8 27 27 W 10 17 30.06 1018 10 16.0934 0 0
3:55 pm 15:55 Sunny 51 10.7 18 -7.7 27 27 W 12 19 30.06 1018 10 16.0934 0 0
4:15 pm 16:15 Sunny 51 10.5 19 -7.4 28 28 WSW 8 13 30.08 1019 10 16.0934 0 0
4:35 pm 16:35 Sunny 50 9.9 19 -7.2 30 30 SW 6 9 30.07 1018 10 16.0934 0 0
4:55 pm 16:55 Sunny 48 8.8 20 -6.9 33 33 SW 7 11 30.08 1019 10 16.0934 0 0
5:15 pm 17:15 Sunny 47 8.1 20 -6.7 35 35 SSW 7 11 30.08 1019 10 16.0934 0 0
5:35 pm 17:35 Clear 43 5.9 19 -7.2 39 39 S 7 11 30.1 1019 10 16.0934 0 0
5:55 pm 17:55 Clear 42 5.4 19 -7.1 40 40 SSW 10 17 30.1 1019 10 16.0934 0 0
6:15 pm 18:15 Clear 41 4.9 18 -7.7 40 40 S 8 13 30.11 1020 10 16.0934 0 0
6:35 pm 18:35 Clear 39 3.9 18 -7.6 43 43 SE 3 6 30.12 1020 10 16.0934 0 0
6:55 pm 18:55 Clear 40 4.4 17 -8.2 40 40 SE 5 7 30.11 1020 10 16.0934 0 0
7:15 pm 19:15 Clear 41 4.8 15 -9.3 36 36 SE 5 7 30.11 1020 10 16.0934 0 0
7:35 pm 19:35 Clear 40 4.2 16 -9.1 38 38 SE 3 6 30.12 1020 10 16.0934 0 0
7:55 pm 19:55 Clear 37 2.9 17 -8.4 44 44 SE 6 9 30.13 1020 10 16.0934 0 0
8:15 pm 20:15 Clear 33 0.3 19 -7 58 58 ENE 5 7 30.15 1021 10 16.0934 0 0
8:35 pm 20:35 Clear 34 1 18 -7.9 52 52 SE 6 9 30.14 1021 10 16.0934 0 0
8:55 pm 20:55 Clear 31 -0.5 18 -7.9 58 58 Calm 30.15 1021 10 16.0934 0 0
9:15 pm 21:15 Clear 36 2.4 16 -8.9 43 43 S 6 9 30.12 1020 10 16.0934 0 0
9:35 pm 21:35 Clear 35 1.9 17 -8.3 47 47 Calm 30.12 1020 10 16.0934 0 0
9:55 pm 21:55 Clear 38 3.4 17 -8.6 41 41 SSW 3 6 30.11 1020 10 16.0934 0 0
10:15 pm 22:15 Clear 39 3.9 15 -9.7 37 37 WSW 5 7 30.1 1019 10 16.0934 0 0
10:35 pm 22:35 Clear 38 3.4 15 -9.5 39 39 WSW 5 7 30.1 1019 10 16.0934 0 0
10:55 pm 22:55 Clear 34 0.9 18 -8 52 52 Calm 30.13 1020 10 16.0934 0 0
11:15 pm 23:15 Clear 29 -1.4 19 -7.5 64 64 NNE 5 7 30.16 1021 10 16.0934 0 0
11:35 pm 23:35 Clear 28 -2.2 19 -7.2 69 69 Calm 30.17 1022 10 16.0934 0 0
11:55 pm 23:55 Clear 29 -1.4 21 -5.9 72 72 WNW 3 6 30.16 1021 10 16.0934 0 0

Powered by AerisWeather